Regional Weather Roundup
Issued by NWS

Home | Current Version | Previous Version | Graphics & Text | Print | Product List | Glossary On
Versions: 1 2 3 4 5 6 7 8 9 10 11 12 13 14 15 16 17 18 19 20 21 22 23 24 25 26 27 28 29 30 31 32 33 34 35 36 37 38 39 40 41 42 43 44 45 46 47 48 49 50
000
ASUS43 KBIS 252202
RWRND

NORTH DAKOTA REGIONAL WEATHER ROUNDUP
NATIONAL WEATHER SERVICE BISMARCK ND
500 PM CDT MON JUL 25 2016

NOTE: "FAIR" INDICATES FEW OR NO CLOUDS BELOW 12,000 FEET WITH NO
SIGNIFICANT WEATHER AND/OR OBSTRUCTIONS TO VISIBILITY.


NDZ001>003-009>011-017-252300-
NORTHWEST NORTH DAKOTA

CITY           SKY/WX    TMP DP  RH WIND       PRES   REMARKS
WILLISTON      SUNNY     92  54  27 N12       29.96F HX  90
MINOT          SUNNY     90  63  40 NE6       29.94S HX  91
MINOT AFB      SUNNY     87  63  44 NE8       29.93S
$$

NDZ018>021-031>035-040>046-252300-
SOUTHWEST NORTH DAKOTA

CITY           SKY/WX    TMP DP  RH WIND       PRES   REMARKS
BISMARCK       SUNNY     93  62  35 W6        29.93S HX  93
DICKINSON      SUNNY     92  45  19 VRB3      29.95F
GARRISON         N/A     88  63  43 VRB3      29.94F
HETTINGER ARPT SUNNY     99  47  17 VRB3      29.96S HX  95
$$

NDZ004>008-012>016-024-026-027-054-252300-
NORTHEAST NORTH DAKOTA

CITY           SKY/WX    TMP DP  RH WIND       PRES   REMARKS
GRAND FORKS    MOSUNNY   88  67  49 S8        29.92F HX  91
GRND FRKS AFB  SUNNY     87  68  52 S6        29.93F HX  90
DEVILS LAKE    SUNNY     86  70  58 NE8       29.93F HX  90
$$

NDZ022-023-025-028>030-036>039-047>053-252300-
SOUTHEAST NORTH DAKOTA

CITY           SKY/WX    TMP DP  RH WIND       PRES   REMARKS
FARGO          SUNNY     90  59  35 S16       29.94F
JAMESTOWN      SUNNY     89  64  43 S12       29.93F HX  90
$$





USA.gov is the U.S. government's official web portal to all federal, state and local government web resources and services.